Imperial, NE

3:01 AM MDT on July 21, 2017 (GMT -0600)
Imperial Municipal

Weather History for KIML - September, 2014

Change the Weather History Date:

Tuesday, September 23, 2014

  Actual Average Record
Temperature  
Mean Temperature 72 °F 61 °F  
Max Temperature 87 °F 76 °F 97 °F (1921)
Min Temperature 56 °F 46 °F 31 °F (1989)
Degree Days  
Heating Degree Days 0 5  
Month to date heating degree days 89 60  
Cooling Degree Days 7 2  
Month to date cooling degree days 79 83  
Year to date cooling degree days 925 949  
Growing Degree Days 22 (Base 50)    
Moisture  
Dew Point 51 °F    
Average Humidity 58    
Maximum Humidity 93    
Minimum Humidity 22    
Precipitation  
Precipitation 0.00 in 0.04 in 0.40 in (1935)
Sea Level Pressure  
Sea Level Pressure 29.95 in    
Wind  
Wind Speed 9 mph (WSW)    
Max Wind Speed 18 mph    
Max Gust Speed 23 mph    
Visibility 10 miles    
Events      
T = Trace of Precipitation, MM = Missing Value Source: NWS Daily Summary

Daily Weather History Graph

Daily Weather History Graph

Search for Another Location

Airport or City:

Trip Planner

Search our weather history database for the weather conditions in past years. The results will help you decide how hot, cold, wet, or windy it might be!

Date:

Astronomy

Sep. 23, 2014 Rise Set
Actual Time 6:35 AM MDT 6:41 PM MDT
Civil Twilight 6:07 AM MDT 7:09 PM MDT
Nautical Twilight 5:35 AM MDT 7:40 PM MDT
Astronomical Twilight 5:03 AM MDT 8:13 PM MDT
Moon 6:01 AM MDT (9/23) 6:21 PM MDT (9/23)
Length of Visible Light 13h 01m
Length of Day
12h 06m
Waning Crescent, 0% of the Moon is Illuminated
Sep 23
Waning Crescent
Sep 24
New
Oct 1
First Quarter
Oct 8
Full
Oct 15
Last Quarter

Hourly Weather History & Observations

Time (MDT) Temp. Dew Point Humidity Pressure Visibility Wind Dir Wind Speed Gust Speed Precip Events Conditions
12:53 AM 60.1 °F 54.0 °F 80% 30.01 in 10.0 mi WSW 8.1 mph - N/A   Clear
1:53 AM 57.9 °F 55.0 °F 90% 30.00 in 10.0 mi SW 4.6 mph - N/A   Clear
2:53 AM 57.0 °F 54.0 °F 89% 29.99 in 10.0 mi SW 6.9 mph - N/A   Clear
3:53 AM 57.0 °F 54.0 °F 89% 29.97 in 10.0 mi South 6.9 mph - N/A   Clear
4:53 AM 57.9 °F 54.0 °F 87% 29.97 in 10.0 mi South 6.9 mph - N/A   Partly Cloudy
5:53 AM 57.9 °F 55.0 °F 90% 29.98 in 10.0 mi South 11.5 mph - N/A   Clear
6:53 AM 59.0 °F 55.0 °F 87% 29.98 in 10.0 mi South 11.5 mph - N/A   Clear
7:53 AM 60.1 °F 55.9 °F 86% 29.98 in 10.0 mi South 9.2 mph - N/A   Clear
8:53 AM 64.9 °F 57.0 °F 75% 29.98 in 10.0 mi SSW 13.8 mph - N/A   Clear
9:53 AM 70.0 °F 57.9 °F 65% 29.97 in 7.0 mi SW 10.4 mph - N/A   Clear
10:53 AM 78.1 °F 53.1 °F 42% 29.94 in 10.0 mi NW 13.8 mph - N/A   Clear
11:53 AM 82.0 °F 48.9 °F 31% 29.93 in 10.0 mi NW 15.0 mph - N/A   Clear
12:53 PM 81.0 °F 48.9 °F 33% 29.92 in 10.0 mi WNW 9.2 mph - N/A   Clear
1:53 PM 84.9 °F 46.9 °F 27% 29.89 in 10.0 mi North - - N/A   Clear
2:53 PM 84.9 °F 44.1 °F 24% 29.89 in 10.0 mi WNW 16.1 mph - N/A   Scattered Clouds
3:53 PM 87.1 °F 44.1 °F 22% 29.88 in 10.0 mi WNW 15.0 mph 19.6 mph N/A   Clear
4:53 PM 84.0 °F 41.0 °F 22% 29.88 in 10.0 mi West 15.0 mph - N/A   Clear
5:53 PM 82.0 °F 44.1 °F 26% 29.88 in 10.0 mi West 9.2 mph - N/A   Clear
6:53 PM 73.9 °F 46.9 °F 38% 29.90 in 8.0 mi West 6.9 mph - N/A   Clear
7:53 PM 68.0 °F 48.9 °F 50% 29.94 in 10.0 mi North 6.9 mph - N/A   Clear
8:53 PM 64.0 °F 50.0 °F 60% 29.97 in 7.0 mi SSW 9.2 mph - N/A   Clear
9:53 PM 62.1 °F 50.0 °F 65% 29.98 in 10.0 mi West 3.5 mph - N/A   Clear
10:53 PM 60.1 °F 50.0 °F 69% 29.97 in 10.0 mi West 4.6 mph - N/A   Clear
11:53 PM 55.9 °F 50.0 °F 80% 29.98 in 10.0 mi WNW 5.8 mph - N/A   Clear